Pagrindinis puslapis
METAR-TAF:

METAR-TAF

Oro uostai :

Niamėjus, Nigeris

platuma: 13-29N, ilguma: 002-10E, Aukštis: 223 m

Dabartinis oras

Ataskaita buvo paskelbta 37 minutes, ne 07:00 UTC
Vėjas 9 kt iš Pietryčių
Temperatūra 26°C
Drėgmė 84%
Slėgis 1011 hPa
Matomumas 10 km arba daugiau
Išsisklaidę debesys ne aukštis 1300 ft

METAR: DRRN 010700Z 14009KT 9999 SCT013 26/23 Q1011 NOSIG

Laikas: 08:37 (07:37 UTC)

Prognozė

Ataskaita buvo paskelbta 2 valandos ir 37 minutes, ne 05:00 UTC
Prognozė galioja nuo 01 metu 06 UTC su 02 metu 12 UTC
Vėjas 8 kt iš Pietų/Pietvakarių
Matomumas 10 km arba daugiau
nėra debesų žemiau 1500 m ir nėra kamuolinių lietaus debesų
Tikimybė 30%
nuo 01 metu 14 UTC su 01 metu 18 UTC
Su prošvaistėmis ne aukštis 1400 ft
Mažai debesys ne aukštis 2000 ft, Liūtiniai kamuoliniai debesys.
perkūnija

TAF: DRRN 010500Z 0106/0212 20008KT CAVOK PROB30 0114/0118 TS BKN014 FEW020CB

Orai ataskaitas ir orų prognozės (METAR, TAF).

turimą stotys yra geltonos ir raudonos taškus žemėlapyje.

Perkelti pele per norėdami pamatyti stoties vardą.

Tada spustelėkite, norėdami matyti oro stebėjimo ir prognozės.

Norėdami pakeisti žemėlapį: spustelėkite ant žalios mygtukų su juodo kryžiaus žemyn,; žalią mygtuką su brūkšneliu, jei norite nutolinti; arba žalių rodyklių gretimoms žemėlapius.


METAR-TAF: